Regional Weather Roundup
Issued by NWS

Home | Current Version | Previous Version | Text Only | Print | Product List | Glossary On
Versions: 1 2 3 4 5 6 7 8 9 10 11 12 13 14 15 16 17 18 19 20 21 22 23 24 25 26 27 28 29 30 31 32 33 34 35 36 37 38 39 40 41 42 43 44 45 46 47 48 49 50
000
ASUS42 KFFC 110303
RWRGA
WEATHER ROUNDUP FOR GEORGIA
NATIONAL WEATHER SERVICE PEACHTREE CITY GA
1000 PM EST WED FEB 10 2016

NOTE: "FAIR" INDICATES FEW OR NO CLOUDS BELOW 12,000 FEET WITH NO
SIGNIFICANT WEATHER AND/OR OBSTRUCTIONS TO VISIBILITY.

* = USE WITH CAUTION. THE STATIONS MARKED WITH AN ASTERISK MAY NOT
REPORT WEATHER SUCH AS PRECIPITATION, FOG, OR THUNDER AND ARE NOT
QUALITY CONTROLLED BY NWS.

THE REMARK "TC" DENOTES TEMPERATURE READING IN DEGREES CELSIUS.

GAZ001>058-110400-
NORTH GEORGIA

CITY           SKY/WX    TMP DP  RH WIND       PRES   REMARKS
ATLANTA        MOCLDY    34  10  37 NW7       30.16R WCI  28
ATHENS         CLOUDY    33  10  38 NW13G21   30.13R WCI  24
CHAMBLEE       CLOUDY    33  11  39 NW8G20    30.14S WCI  26
PEACHTREE CITY   N/A     28  13  53 CALM      30.17R
ROME             N/A    N/A N/A N/A MISG      30.18R
WEST ATLANTA   CLOUDY    33   9  36 NW6       30.17R WCI  28
GAINESVILLE    CLOUDY    29  12  49 W15G21    30.13R WCI  18
CARTERSVILLE   CLOUDY    32  12  43 CALM      30.19R


CITY           SKY/WX    TMP DP  RH WIND       PRES   REMARKS
MARIETTA       CLOUDY    32   9  38 NW12      30.15R WCI  23
KENNESAW*      CLOUDY    30   9  40 NW9G18    30.16R WCI  22
BLAIRSVILLE*   LGT SNOW  24   3  40 N3        30.11R
$$

GAZ059>098-102>109-110400-
CENTRAL GEORGIA

CITY           SKY/WX    TMP DP  RH WIND       PRES   REMARKS
AUGUSTA-BUSH   CLOUDY    32  16  51 W5        30.15R WCI  27
COLUMBUS       CLEAR     36  12  37 W3        30.20R
MACON          CLEAR     34  16  47 W5        30.17R WCI  30
ROBINS AFB     CLEAR     38  11  33 W7        30.17R WCI  32


CITY           SKY/WX    TMP DP  RH WIND       PRES   REMARKS
LAGRANGE*      CLEAR     32  23  71 CALM      30.18R
SYLVANIA*      CLOUDY    36  21  54 CALM      30.15F
MILLEDGEVILLE* CLEAR     34  14  44 CALM      30.16R
$$

GAZ099>101-110>166-110400-
SOUTH GEORGIA

CITY           SKY/WX    TMP DP  RH WIND       PRES   REMARKS
SAVANNAH       CLEAR     35  16  45 SW6       30.19R WCI  30
VALDOSTA       CLEAR     33  24  69 CALM      30.22F
ALMA           CLEAR     31  24  75 CALM      30.20R
ST SIMONS      CLEAR     39  23  52 SW8       30.21S WCI  33
FT STEWART     CLEAR     35  19  53 SW2       30.16S
ALBANY         CLEAR     33  20  58 W3        30.22S
HUNTER AFB     CLEAR     33  19  56 SW5       30.16R WCI  29
MOODY AFB      CLEAR     38  17  43 SW3       30.20F
BRUNSWICK      CLEAR     37  25  60 W8        30.22R WCI  31


CITY           SKY/WX    TMP DP  RH WIND       PRES   REMARKS
BAINBRIDGE*    CLEAR     36  23  60 SW3       30.22F
MOULTRIE*      CLEAR     37  21  52 CALM      30.22R
VIDALIA*       PTCLDY    36  19  51 SW3       30.17S
WAYCROSS*      CLEAR     38  24  56 SW5       30.21R WCI  35
DOUGLAS*       CLEAR     36  21  55 W6        30.21R WCI  31
$$



USA.gov is the U.S. government's official web portal to all federal, state and local government web resources and services.